Flag for U.S.A. Weather past 2 weeks in Bowling Green, Kentucky, U.S.A.

Now
86 °F

Sunny.


Feels Like: 84 °F
Forecast: 63 / 87 °F
Wind: 3 mph from Northeast

Location: Glasgow Municipal Airport

Current Time: Aug 1, 2014 at 5:54:54 PM

Latest Report: Aug 1, 2014 at 5:15 PM


Visibility: 10 mi

Pressure: 30.03 "Hg

Humidity: 29%

Dew point: 51 °F

Location of Bowling GreenLocation

Historic Weather in Bowling Green — Graph

°F

Bowling Green temperature yesterday

Maximum temperature yesterday: 83 °F (at 2:55 PM)
Minimum temperature yesterday: 57 °F (at 6:15 AM)
Average temperature yesterday: 71 °F

Past Weeks' High & Low Weather Summary

 TemperatureHumidityPressure
High92 °F (Jul 26, 4:15 PM)100% (Jul 18, 2:15 PM)30.16 "Hg (Jul 18, 2:15 PM)
Low53 °F (Jul 29, 6:35 AM)27% (Aug 1, 2:35 PM)29.79 "Hg (Jul 27, 3:35 PM)
Average72 °F73%30.04 "Hg
* Reported Jul 17 4:15 PM — Aug 1 4:55 PM, Bowling Green, Weather by CustomWeather, © 2014

Note: Actual official high and low records may vary slightly from our data, if they occured in-between our weather recording intervals... More about our weather records

Advertising

Bowling Green weather history for previous 24 hours

 ConditionsComfort  
Time TempWeatherWind HumidityBarometerVisibility
4:55 PM
Aug 1
86 °FSunny.6 mph30%30.03 "Hg10 mi
4:15 PM86 °FSunny.3 mph29%30.03 "Hg10 mi
3:55 PM87 °FSunny.6 mph28%30.04 "Hg10 mi
3:15 PM87 °FSunny.3 mph28%30.04 "Hg10 mi
2:55 PM87 °FSunny.7 mph28%30.05 "Hg10 mi
2:35 PM87 °FSunny.6 mph27%30.06 "Hg10 mi
2:15 PM87 °FSunny.3 mph28%30.07 "Hg10 mi
1:55 PM86 °FSunny.3 mph30%30.07 "Hg10 mi
1:35 PM86 °FSunny.8 mph31%30.08 "Hg10 mi
1:15 PM85 °FSunny.No wind33%30.08 "Hg10 mi
12:55 PM85 °FSunny.5 mph36%30.08 "Hg10 mi
12:35 PM85 °FSunny.3 mph36%30.09 "Hg10 mi
12:15 PM84 °FSunny.6 mph36%30.09 "Hg10 mi
11:55 AM83 °FSunny.5 mph38%30.10 "Hg10 mi
11:35 AM83 °FSunny.6 mph40%30.10 "Hg10 mi
11:15 AM82 °FSunny.6 mph41%30.10 "Hg10 mi
10:55 AM82 °FSunny.7 mph43%30.11 "Hg10 mi
10:35 AM81 °FSunny.5 mph45%30.11 "Hg10 mi
10:15 AM80 °FSunny.5 mph50%30.11 "Hg10 mi
9:55 AM79 °FSunny.7 mph54%30.11 "Hg10 mi
9:35 AM77 °FSunny.3 mph61%30.11 "Hg10 mi
9:10 AM75 °FSunny.3 mph62%30.10 "Hg10 mi
8:55 AM73 °FSunny.3 mph66%30.11 "Hg10 mi
8:35 AM71 °FSunny.3 mph71%30.11 "Hg10 mi
8:15 AM69 °FSunny.No wind82%30.11 "Hg10 mi
7:55 AM66 °FSunny.No wind91%30.11 "Hg7 mi
7:35 AM64 °FSunny.No wind98%30.11 "Hg7 mi
7:15 AM62 °FFog.No wind100%30.11 "Hg5 mi
6:55 AM60 °FFog.No wind100%30.10 "Hg4 mi
6:35 AM59 °FFog.No wind100%30.10 "Hg3 mi
6:15 AM59 °FFog.No wind100%30.10 "Hg2 mi
5:55 AM59 °FFog.No wind100%30.09 "Hg3 mi
5:35 AM59 °FFog.No wind100%30.09 "Hg5 mi
5:15 AM59 °FFog.No wind100%30.09 "Hg5 mi
4:55 AM59 °FFog.No wind100%30.08 "Hg5 mi
4:35 AM60 °FFog.No wind100%30.08 "Hg4 mi
4:15 AM60 °FFog.No wind100%30.08 "Hg5 mi
3:55 AM60 °FFog.No wind100%30.07 "Hg5 mi
3:15 AM60 °FFog.No wind100%30.07 "Hg5 mi
2:55 AM61 °FFog.No wind99%30.07 "Hg5 mi
2:35 AM62 °FPassing clouds.No wind97%30.07 "Hg7 mi
2:15 AM62 °FClear.No wind98%30.07 "Hg10 mi
1:55 AM62 °FClear.No wind97%30.07 "Hg7 mi
1:35 AM62 °FClear.No wind98%30.07 "Hg7 mi
1:15 AM63 °FClear.No wind89%30.08 "Hg10 mi
12:55 AM64 °FClear.No wind92%30.08 "Hg10 mi
12:15 AM64 °FClear.No wind84%30.09 "Hg10 mi
11:55 PM
Jul 31
65 °FClear.No wind82%30.09 "Hg10 mi
10:55 PM66 °FClear.No wind81%30.08 "Hg10 mi
10:35 PM66 °FClear.No wind81%30.08 "Hg10 mi
10:15 PM68 °FClear.No wind76%30.09 "Hg10 mi
9:55 PM68 °FClear.No wind76%30.09 "Hg10 mi
9:35 PM69 °FClear.No wind74%30.09 "Hg10 mi
9:15 PM69 °FClear.No wind73%30.08 "Hg10 mi
8:55 PM69 °FClear.No wind69%30.08 "Hg10 mi
8:35 PM71 °FSunny.No wind63%30.07 "Hg10 mi
8:15 PM74 °FSunny.No wind56%30.07 "Hg10 mi
7:55 PM75 °FSunny.3 mph52%30.07 "Hg10 mi
7:35 PM77 °FScattered clouds.No wind48%30.07 "Hg10 mi
7:15 PM79 °FScattered clouds.No wind45%30.07 "Hg10 mi
6:55 PM81 °FSunny.3 mph40%30.07 "Hg10 mi
6:35 PM81 °FSunny.5 mph39%30.07 "Hg10 mi
6:15 PM81 °FSunny.3 mph41%30.07 "Hg10 mi
5:55 PM82 °FSunny.3 mph37%30.07 "Hg10 mi
5:35 PM83 °FSunny.No wind33%30.07 "Hg10 mi
5:15 PM83 °FSunny.No wind34%30.07 "Hg10 mi
Weather by CustomWeather, © 2014

See weather overviewHow to use our weather pages